Simultaneous Nadir Overpasses (SNOs) Predictions

Prediction of SNOs between GOES-15 and NPP Satellite Orbit:

Table of predicted SNOs for the next 14.0 days since TLE Epoch: 1/20/2012
Index Date Time (GOES-15) GOES-15 Lat,Lon NPP Lat,Lon Distance(km) Time Diff (sec)
1 01/20/2012 22:35:49 0.02,-134.56 -0.61,-137.38 321.84 80
2 01/21/2012 22:14:25 0.01,-134.54 0.41,-132.86 191.44 80
3 01/23/2012 10:36:16 -0.01,-134.51 0.77,-138.15 414.16 80
4 01/24/2012 10:20:13 -0.01,-134.48 -0.21,-133.62 98.47 80
5 01/26/2012 22:23:34 0.02,-134.42 0.01,-134.44 1.84 80
6 01/29/2012 10:24:10 -0.02,-134.35 0.17,-135.23 99.84 80
7 01/30/2012 10:08:11 -0.01,-134.33 -0.84,-130.73 410.56 80
8 01/31/2012 22:30:18 -0.01,-134.28 -0.40,-136.07 204.17 80
9 02/01/2012 22:09:00
